Accueil
METAR-TAF:

METAR-TAF

Aéroports :

Elsenborn

Butgenbach, Belgique

latitude: 50-28N, longitude: 006-11E, altitude: 564 m

Observation

Le bulletin a été fait il y a 16 minutes, à 07:55 UTC
Vent 1 kt de direction variable
Température 14°C
Humidité 63%
Pression 1014 hPa
Visibilité 10 km ou plus

METAR: EBLB 150755Z AUTO VRB01KT 9999 BKN120/// BKN140/// 14/07 Q1014 BLU

Heure: 10:11 (08:11 UTC)


TAF: absent

Observations et prévisions météorologiques de plus de 4000 aéroports (messages METAR et TAF).

Les stations disponibles sont représentées par des disques jaunes et rouges sur la carte.

Passer la souris dessus pour voir le nom de la station.

Cliquer dessus pour voir les observations et prévisions météorologiques.

Pour changer de carte: cliquez sur les boutons verts avec une croix noire pour zoomer, sur le bouton vert avec un tiret pour effectuer un zoom arrière, ou sur les flèches vertes pour les cartes adjacentes.


METAR-TAF: